Regional Weather Roundup
Issued by NWS

Home | Current Version | Previous Version | Text Only | Print | Product List | Glossary On
Versions: 1 2 3 4 5 6 7 8 9 10 11 12 13 14 15 16 17 18 19 20 21 22 23 24 25 26 27 28 29 30 31 32 33 34 35 36 37 38 39 40 41 42 43 44 45 46 47 48 49 50
000
ASUS43 KTOP 250359
RWRKS

WEATHER ROUNDUP FOR KANSAS
NATIONAL WEATHER SERVICE GOODLAND KS
1000 PM CST SAT JAN 24 2015

NOTE:  "FAIR" INDICATES FEW OR NO CLOUDS BELOW 12,000 FEET WITH NO
SIGNIFICANT WEATHER AND/OR OBSTRUCTIONS TO VISIBILITY.

KSZ001>006-013>018-027>032-041>047-250500-
NORTHWEST KANSAS

CITY           SKY/WX    TMP DP  RH WIND       PRES   REMARKS
GOODLAND       CLOUDY    44  33  65 NW30G43   30.01R
HAYS           CLOUDY    48  32  53 NW18      29.85S
HILL CITY      MOCLDY    49  33  54 NW20G30   29.87R
RUSSELL        CLOUDY    48  38  68 W15       29.80F
$$

KSZ061>065-074>080-084>089-250500-
SOUTHWEST KANSAS

CITY           SKY/WX    TMP DP  RH WIND       PRES   REMARKS
DODGE CITY     LGT RAIN  49  33  54 W13       29.95R
ELKHART          N/A    N/A N/A N/A MISG        N/A
GARDEN CITY    LGT RAIN  49  33  54 NW15G23   29.98R
GREAT BEND     CLOUDY    48  36  61 W13       29.85S
LIBERAL        CLOUDY    46  28  49 NW10      30.01R
$$

KSZ066>073-081>083-090>101-250500-
SOUTHEAST KANSAS

CITY           SKY/WX    TMP DP  RH WIND       PRES   REMARKS
CHANUTE        CLOUDY    54  31  41 W14       29.80R
COFFEYVILLE    CLOUDY    53  31  42 SW16      29.80F
HUTCHINSON     CLOUDY    53  32  44 W10       29.82S
MEDICINE LODGE   N/A     52  27  38 W3        29.85F
NEWTON         CLOUDY    48  34  57 W7        29.82F
PARSONS        CLOUDY    51  31  46 SW8       29.81F
WICHITA INTL   CLOUDY    55  33  43 W9        29.81F
WICHITA JABRA  CLOUDY    52  36  54 W8        29.81F
WINFIELD       CLOUDY    50  30  46 W9        29.84S
$$

KSZ007>012-019>026-033>040-048>060-102>105-250500-
NORTHEAST KANSAS

CITY           SKY/WX    TMP DP  RH WIND       PRES   REMARKS
CONCORDIA      CLOUDY    47  34  60 W13       29.73F
EMPORIA        CLOUDY    48  39  71 W7        29.77F
LAWRENCE       LGT RAIN  47  42  83 CALM      29.73F
MANHATTAN      CLOUDY    49  39  68 W8        29.75S
OLATHE IND     LGT RAIN  47  42  83 SW10      29.75S
OLATHE EXE     LGT RAIN  48  43  82 W8        29.73R
SALINA         CLOUDY    49  42  77 W15       29.78F
TOPEKA BILLARD LGT RAIN  51  39  63 W8G17     29.73F
TOPEKA FORBES  LGT RAIN  50  41  71 W13       29.73F
$$


USA.gov is the U.S. government's official web portal to all federal, state and local government web resources and services.